EW0362 Weather Reports


Display with metric or nautical units.
time (UTC)temp
F
wind
direction
speed
MPH
gust
MPH
rain 1hr
in
rain 24hr
in
rain mn
in
humidity
%
barometer
mb
20210623141702 63 0 2.0 3.0 0.00 0.26 0.00 59 1019.1
20210623141202 63 0 0.0 1.0 0.00 0.26 0.00 57 1019.0
20210623140703 63 0 1.0 1.0 0.00 0.26 0.00 63 1019.0
20210623134703 62 0 0.0 1.0 0.00 0.26 0.00 63 1018.7
20210623133703 62 0 0.0 1.0 0.00 0.26 0.00 61 1018.6
20210623133203 62 209 0.0 1.0 0.00 0.26 0.00 63 1018.8
20210623132203 62 0 0.0 2.0 0.00 0.26 0.00 65 1018.6
20210623131703 61 337 0.0 2.0 0.00 0.26 0.00 64 1018.6
20210623131203 61 327 0.0 1.0 0.00 0.26 0.00 67 1018.5
20210623130703 61 37 0.0 2.0 0.00 0.26 0.00 69 1018.4
20210623130203 60 264 0.0 1.0 0.00 0.26 0.00 74 1018.3
20210623125703 60 305 0.0 3.0 0.00 0.26 0.00 70 1018.2
20210623125202 59 259 0.0 2.0 0.00 0.26 0.00 75 1018.3
20210623124203 58 85 1.0 1.0 0.00 0.26 0.00 77 1018.2
20210623123703 58 214 0.0 1.0 0.00 0.26 0.00 77 1018.2
20210623122203 57 210 0.0 1.0 0.00 0.26 0.00 84 1018.0
20210623121203 56 247 1.0 2.0 0.00 0.26 0.00 82 1018.0
20210623120703 56 78 0.0 1.0 0.00 0.26 0.00 85 1018.0
20210623120203 56 212 0.0 1.0 0.00 0.26 0.00 86 1018.0
20210623115205 55 295 0.0 2.0 0.00 0.26 0.00 86 1017.8
20210623114703 55 304 0.0 1.0 0.00 0.26 0.00 88 1017.7
20210623114203 55 179 0.0 1.0 0.00 0.26 0.00 87 1017.5
20210623113703 54 240 0.0 2.0 0.00 0.26 0.00 88 1017.5
20210623112703 53 71 0.0 2.0 0.00 0.26 0.00 92 1017.3
20210623112203 53 51 0.0 1.0 0.00 0.26 0.00 93 1017.2
20210623111202 52 64 0.0 0.0 0.00 0.26 0.00 95 1017.0
20210623110703 52 64 0.0 1.0 0.00 0.26 0.00 95 1017.0
20210623110203 52 64 1.0 3.0 0.00 0.26 0.00 95 1016.8
20210623105703 51 313 0.0 0.0 0.00 0.26 0.00 95 1016.7
20210623105203 51 313 0.0 0.0 0.00 0.26 0.00 95 1016.7
20210623104202 51 313 0.0 0.0 0.00 0.26 0.00 94 1016.6
20210623103203 51 312 0.0 0.0 0.00 0.26 0.00 94 1016.4
20210623102703 51 313 0.0 0.0 0.00 0.26 0.00 94 1016.3
20210623102203 51 312 0.0 0.0 0.00 0.26 0.00 94 1016.3
20210623101703 51 312 0.0 0.0 0.00 0.26 0.00 94 1016.2
20210623100702 51 312 0.0 0.0 0.00 0.26 0.00 93 1016.0
20210623100203 51 312 0.0 0.0 0.00 0.26 0.00 93 1015.9
20210623095703 51 312 0.0 0.0 0.00 0.26 0.00 93 1015.9
20210623094703 52 312 0.0 1.0 0.00 0.26 0.00 93 1015.8
20210623093704 52 306 0.0 0.0 0.00 0.26 0.00 93 1015.6
20210623093203 52 306 0.0 0.0 0.00 0.26 0.00 93 1015.5
20210623092203 52 306 0.0 1.0 0.00 0.26 0.00 93 1015.2
20210623091204 52 322 0.0 1.0 0.00 0.26 0.00 93 1015.1
20210623090203 52 323 0.0 0.0 0.00 0.26 0.00 93 1014.5
20210623084703 52 9 0.0 0.0 0.00 0.26 0.00 94 1014.2
20210623084204 52 9 0.0 0.0 0.00 0.26 0.00 94 1014.1
20210623083703 52 9 0.0 0.0 0.00 0.26 0.00 94 1014.0
20210623083203 52 9 0.0 1.0 0.00 0.26 0.00 93 1014.1
20210623082703 52 9 0.0 0.0 0.00 0.26 0.00 93 1013.9
20210623082204 53 9 0.0 0.0 0.00 0.26 0.00 93 1013.9
20210623081203 53 9 0.0 0.0 0.00 0.26 0.00 94 1013.6
20210623080204 53 9 0.0 0.0 0.00 0.26 0.00 93 1013.5
20210623075203 53 9 0.0 0.0 0.00 0.26 0.00 93 1013.1
20210623074703 53 9 0.0 0.0 0.00 0.26 0.00 93 1013.0
20210623074203 53 9 0.0 0.0 0.00 0.26 0.00 93 1012.9
20210623073203 54 9 0.0 0.0 0.00 0.26 0.00 93 1012.8
20210623072704 54 9 0.0 0.0 0.00 0.26 0.00 93 1012.7
20210623072203 54 0 0.0 1.0 0.00 0.26 0.00 93 1012.6
20210623071203 54 9 0.0 0.0 0.00 0.26 0.00 91 1012.5
20210623070704 54 9 0.0 1.0 0.00 0.26 0.00 91 1012.4
20210623070203 54 0 0.0 0.0 0.00 0.26 0.00 91 1012.3
20210623065703 55 0 0.0 1.0 0.00 0.26 0.00 91 1012.2
20210623065203 55 90 0.0 1.0 0.00 0.26 0.00 92 1012.1
20210623064703 55 90 0.0 0.0 0.00 0.26 0.00 92 1012.0
20210623064203 55 90 0.0 0.0 0.00 0.26 0.00 91 1012.0
20210623063703 55 90 0.0 1.0 0.00 0.26 0.00 91 1012.0
20210623061703 55 212 0.0 1.0 0.00 0.26 0.00 92 1011.8
20210623061204 55 213 0.0 1.0 0.00 0.26 0.00 92 1011.7
20210623060703 56 225 0.0 1.0 0.00 0.26 0.00 92 1011.6
20210623055704 56 45 0.0 1.0 0.00 0.26 0.00 92 1011.4
20210623055204 56 236 0.0 0.0 0.00 0.26 0.00 92 1011.2
20210623054703 56 236 0.0 3.0 0.00 0.26 0.00 92 1011.1
20210623054203 56 331 0.0 1.0 0.00 0.26 0.00 92 1011.3
20210623053704 56 284 0.0 1.0 0.00 0.26 0.00 93 1011.3
20210623052703 56 142 0.0 1.0 0.00 0.26 0.00 93 1011.3
20210623052203 56 140 0.0 1.0 0.00 0.26 0.00 93 1011.2
20210623051705 56 134 0.0 1.0 0.00 0.26 0.00 93 1011.1
20210623051204 56 73 0.0 1.0 0.00 0.26 0.00 93 1011.1
20210623045704 57 42 0.0 1.0 0.00 0.26 0.00 93 1010.9
20210623044204 57 229 0.0 1.0 0.00 0.26 0.00 93 1010.7
20210623043704 57 189 0.0 1.0 0.00 0.26 0.00 93 1010.6
20210623043203 57 304 0.0 2.0 0.00 0.26 0.00 93 1010.6
20210623042703 57 322 0.0 1.0 0.00 0.26 0.00 94 1010.6
20210623042204 58 60 0.0 1.0 0.00 0.26 0.00 94 1010.4
20210623041703 58 50 0.0 1.0 0.00 0.26 0.00 95 1010.3
20210623041203 58 50 0.0 1.0 0.00 0.26 0.00 95 1010.3
20210623040703 58 131 0.0 1.0 0.00 0.26 0.00 95 1010.2
20210623040203 58 254 0.0 1.0 0.00 0.26 0.00 96 1010.2
20210623035704 59 289 0.0 1.0 0.00 0.26 0.26 96 1010.0
20210623035204 58 147 0.0 1.0 0.00 0.26 0.26 96 1010.0
20210623034204 59 172 0.0 0.0 0.00 0.26 0.26 96 1009.7
20210623033703 59 171 0.0 0.0 0.00 0.26 0.26 96 1009.6
20210623033203 59 171 0.0 1.0 0.00 0.26 0.26 96 1009.6
20210623032704 59 171 0.0 1.0 0.00 0.26 0.26 96 1009.5
20210623031703 59 158 0.0 0.0 0.00 0.26 0.26 96 1009.2
20210623031203 59 158 0.0 0.0 0.00 0.26 0.26 96 1009.3
20210623030204 59 178 0.0 1.0 0.00 0.26 0.26 96 1009.2
20210623025703 59 263 0.0 1.0 0.00 0.26 0.26 95 1009.1
20210623025204 59 268 0.0 1.0 0.00 0.26 0.26 95 1008.9
20210623024703 60 205 0.0 0.0 0.00 0.26 0.26 95 1008.9
20210623024204 60 261 0.0 1.0 0.00 0.26 0.26 96 1008.8
20210623023704 60 283 0.0 1.0 0.00 0.26 0.26 95 1008.8
20210623023203 60 284 0.0 1.0 0.00 0.26 0.26 95 1008.7
20210623022704 60 87 0.0 1.0 0.00 0.26 0.26 95 1008.6
20210623021703 60 83 0.0 0.0 0.00 0.26 0.26 96 1008.5
20210623020704 61 83 0.0 1.0 0.01 0.26 0.26 96 1008.4
20210623020204 61 83 0.0 1.0 0.01 0.26 0.26 95 1008.4
20210623015203 61 74 0.0 1.0 0.02 0.26 0.26 95 1008.3
20210623014704 61 94 0.0 1.0 0.03 0.26 0.26 95 1008.1
20210623013204 62 54 0.0 1.0 0.03 0.26 0.26 96 1007.9
20210623012703 62 52 0.0 1.0 0.03 0.26 0.26 96 1007.5
20210623012204 62 66 0.0 1.0 0.04 0.26 0.26 96 1007.4
20210623011703 62 35 0.0 1.0 0.04 0.26 0.26 96 1007.0
20210623011204 62 37 0.0 0.0 0.03 0.25 0.25 96 1006.6
20210623010703 63 60 0.0 0.0 0.03 0.25 0.25 96 1006.7
20210623010204 63 60 0.0 0.0 0.04 0.25 0.25 96 1006.4
20210623005703 63 60 0.0 1.0 0.03 0.24 0.24 96 1006.2
20210623004704 63 60 0.0 1.0 0.02 0.23 0.23 96 1005.8
20210623004204 63 60 0.0 0.0 0.02 0.23 0.23 96 1005.4
20210623003703 63 60 0.0 0.0 0.02 0.23 0.23 95 1005.3
20210623003203 63 60 0.0 0.0 0.02 0.23 0.23 95 1005.2
20210623002203 64 60 0.0 0.0 0.02 0.22 0.22 96 1005.5
20210623001703 64 60 0.0 0.0 0.02 0.22 0.22 96 1005.3
20210623001202 64 60 0.0 1.0 0.02 0.22 0.22 96 1005.6
20210623000702 64 60 0.0 0.0 0.03 0.22 0.22 96 1005.5
20210623000204 64 60 0.0 0.0 0.03 0.21 0.21 96 1005.4
20210622235703 64 60 0.0 0.0 0.03 0.21 0.21 96 1005.7
20210622234702 64 60 0.0 0.0 0.04 0.21 0.21 96 1006.1
20210622234202 64 60 0.0 0.0 0.04 0.21 0.21 96 1006.3
20210622233703 64 60 0.0 0.0 0.04 0.21 0.21 96 1006.1
20210622233203 64 60 0.0 0.0 0.04 0.21 0.21 96 1005.9
20210622232702 64 60 0.0 0.0 0.04 0.21 0.21 96 1006.0
20210622232202 64 60 0.0 0.0 0.03 0.20 0.20 96 1006.1
20210622231703 65 60 0.0 1.0 0.04 0.20 0.20 96 1005.9
20210622231203 65 60 0.0 0.0 0.04 0.20 0.20 96 1006.4
20210622230203 64 60 0.0 0.0 0.02 0.18 0.18 96 1007.8
20210622225702 65 60 0.0 1.0 0.02 0.18 0.18 95 1007.9
20210622224702 65 289 0.0 1.0 0.01 0.17 0.17 95 1006.7
20210622224203 65 255 0.0 1.0 0.01 0.17 0.17 95 1006.8
20210622222702 65 64 0.0 1.0 0.01 0.17 0.17 95 1005.9
20210622222203 66 58 0.0 1.0 0.02 0.17 0.17 96 1005.6
20210622221703 66 52 1.0 3.0 0.01 0.16 0.16 96 1005.1
20210622221203 66 110 1.0 2.0 0.02 0.16 0.16 96 1005.8
20210622220702 66 93 0.0 0.0 0.04 0.16 0.16 96 1006.5
20210622220202 66 93 0.0 0.0 0.06 0.16 0.16 96 1006.4
20210622215702 66 94 0.0 0.0 0.09 0.16 0.16 96 1006.7
20210622214703 66 94 0.0 0.0 0.11 0.16 0.16 96 1005.9
20210622214202 66 93 0.0 0.0 0.11 0.16 0.16 96 1005.7
20210622213702 66 93 0.0 0.0 0.11 0.16 0.16 96 1005.6
20210622213203 65 93 0.0 0.0 0.11 0.16 0.16 96 1005.5
20210622212703 65 93 0.0 0.0 0.11 0.16 0.16 96 1005.3
20210622211702 65 94 0.0 0.0 0.10 0.15 0.15 96 1005.3
20210622211203 65 94 0.0 0.0 0.10 0.14 0.14 96 1005.7
20210622210702 65 94 0.0 0.0 0.08 0.12 0.12 96 1005.4
20210622210202 65 94 0.0 0.0 0.06 0.10 0.10 95 1005.6
20210622205703 65 94 0.0 0.0 0.03 0.07 0.07 95 1005.8
20210622205203 65 94 0.0 0.0 0.01 0.05 0.05 95 1005.6
20210622204703 65 94 0.0 0.0 0.01 0.05 0.05 95 1005.2
20210622204202 65 94 0.0 0.0 0.01 0.05 0.05 95 1004.7
20210622203203 65 94 0.0 0.0 0.01 0.05 0.05 95 1004.5
20210622202703 65 95 0.0 0.0 0.01 0.05 0.05 94 1004.4
20210622201702 65 94 0.0 1.0 0.01 0.05 0.05 94 1004.8
20210622201203 65 94 0.0 0.0 0.00 0.04 0.04 94 1004.7
20210622200703 65 94 0.0 0.0 0.00 0.04 0.04 94 1004.7
20210622200202 65 94 0.0 0.0 0.01 0.04 0.04 94 1004.6
20210622195702 65 94 0.0 0.0 0.01 0.04 0.04 94 1004.6
20210622195202 65 94 0.0 0.0 0.01 0.04 0.04 93 1004.6
20210622194703 65 94 0.0 0.0 0.02 0.04 0.04 93 1004.7
20210622194203 65 94 0.0 0.0 0.02 0.04 0.04 93 1004.6
20210622193703 65 94 0.0 0.0 0.04 0.04 0.04 92 1004.7
20210622193203 65 94 0.0 0.0 0.04 0.04 0.04 92 1004.7
20210622192203 65 94 0.0 0.0 0.04 0.04 0.04 92 1004.7
20210622190203 66 94 0.0 2.0 0.03 0.03 0.03 89 1004.9
20210622185702 67 98 0.0 0.0 0.03 0.03 0.03 87 1005.1
20210622185203 67 98 0.0 1.0 0.03 0.03 0.03 87 1004.9
20210622184202 68 0 0.0 2.0 0.02 0.02 0.02 84 1005.0
20210622183703 68 0 0.0 3.0 0.00 0.00 0.00 81 1005.4
20210622182703 69 279 1.0 3.0 0.00 0.00 0.00 79 1005.3
20210622182203 69 318 1.0 3.0 0.00 0.00 0.00 77 1005.4
20210622181202 70 0 1.0 3.0 0.00 0.00 0.00 78 1005.3
20210622180703 70 0 0.0 2.0 0.00 0.00 0.00 77 1005.3
20210622175703 71 0 1.0 3.0 0.00 0.00 0.00 74 1005.1
20210622175203 71 0 0.0 3.0 0.00 0.00 0.00 72 1005.1
20210622174203 72 0 1.0 3.0 0.00 0.00 0.00 73 1005.2
20210622173703 72 0 1.0 3.0 0.00 0.00 0.00 73 1005.2
20210622172703 73 262 1.0 7.0 0.00 0.00 0.00 71 1005.1
20210622171703 73 248 1.0 3.0 0.00 0.00 0.00 75 1004.8
20210622171203 73 1 1.0 3.0 0.00 0.00 0.00 75 1004.8
20210622170703 73 234 0.0 2.0 0.00 0.00 0.00 77 1004.9
20210622165703 74 255 2.0 8.0 0.00 0.00 0.00 77 1004.9
20210622165203 74 287 1.0 5.0 0.00 0.00 0.00 76 1004.8
20210622164203 75 47 0.0 2.0 0.00 0.00 0.00 77 1004.9
20210622163703 75 286 1.0 3.0 0.00 0.00 0.00 77 1004.8
20210622163203 76 9 1.0 3.0 0.00 0.00 0.00 80 1004.9
20210622162203 76 182 1.0 2.0 0.00 0.00 0.00 77 1004.8
20210622161203 77 0 1.0 2.0 0.00 0.00 0.00 75 1004.6
20210622160703 78 0 1.0 3.0 0.00 0.00 0.00 77 1004.5
20210622155203 78 236 0.0 1.0 0.00 0.00 0.00 79 1004.4
20210622154703 78 236 1.0 2.0 0.00 0.00 0.00 78 1004.3
20210622154203 78 283 0.0 3.0 0.00 0.00 0.00 77 1004.3
20210622153203 78 284 1.0 3.0 0.00 0.00 0.00 76 1004.3
20210622152202 79 97 0.0 2.0 0.00 0.00 0.00 76 1004.3
20210622151703 79 84 1.0 2.0 0.00 0.00 0.00 76 1004.3
20210622150703 79 238 0.0 2.0 0.00 0.00 0.00 79 1004.0
20210622150203 79 291 1.0 2.0 0.00 0.00 0.00 78 1003.9
20210622145703 79 53 1.0 2.0 0.00 0.00 0.00 75 1003.9
20210622145203 80 9 1.0 2.0 0.00 0.00 0.00 77 1003.8
20210622144703 79 163 1.0 3.0 0.00 0.00 0.00 78 1003.9
20210622144203 79 211 1.0 3.0 0.00 0.00 0.00 80 1003.8
20210622142703 79 286 0.0 2.0 0.00 0.00 0.00 79 1003.7
20210622142203 78 128 1.0 3.0 0.00 0.00 0.00 82 1003.7